Time,TemperatureF,DewpointF,PressureIn,WindDirection,WindDirectionDegrees,WindSpeedMPH,WindSpeedGustMPH,Humidity,HourlyPrecipIn,Conditions,Clouds,dailyrainin,SoftwareType,DateUTC
2013-06-24 00:01:00,69.6,66.9,29.96,WSW,244,5.0,12.0,91,0.00,,,0.87,Wunderground v.1.15,2013-06-24 05:01:00,
2013-06-24 00:06:00,69.6,66.5,29.96,WSW,242,5.0,12.0,90,0.00,,,0.00,Wunderground v.1.15,2013-06-24 05:06:00,
2013-06-24 00:11:00,69.7,66.6,29.96,WSW,250,6.0,8.0,90,0.00,,,0.00,Wunderground v.1.15,2013-06-24 05:11:00,
2013-06-24 00:17:00,69.7,66.6,29.96,WSW,238,7.0,8.0,90,0.00,,,0.00,Wunderground v.1.15,2013-06-24 05:17:00,
2013-06-24 00:22:00,69.7,66.6,29.95,SW,236,7.0,8.0,90,0.00,,,0.00,Wunderground v.1.15,2013-06-24 05:22:00,
2013-06-24 00:27:00,69.7,66.6,29.95,SW,229,7.0,8.0,90,0.00,,,0.00,Wunderground v.1.15,2013-06-24 05:27:00,
2013-06-24 00:33:00,69.7,66.6,29.95,WSW,244,7.0,11.0,90,0.00,,,0.00,Wunderground v.1.15,2013-06-24 05:33:00,
2013-06-24 00:39:00,69.7,66.6,29.95,SW,234,7.0,11.0,90,0.00,,,0.00,Wunderground v.1.15,2013-06-24 05:39:00,
2013-06-24 00:45:00,69.6,66.5,29.95,SW,236,7.0,10.0,90,0.00,,,0.00,Wunderground v.1.15,2013-06-24 05:45:00,
2013-06-24 00:50:00,69.6,66.5,29.95,WSW,240,7.0,7.0,90,0.00,,,0.00,Wunderground v.1.15,2013-06-24 05:50:00,
2013-06-24 00:55:00,69.5,66.4,29.95,WSW,238,7.0,10.0,90,0.00,,,0.00,Wunderground v.1.15,2013-06-24 05:55:00,
2013-06-24 01:01:00,69.4,66.3,29.95,WSW,243,7.0,10.0,90,0.00,,,0.00,Wunderground v.1.15,2013-06-24 06:01:00,
2013-06-24 01:06:00,69.3,66.6,29.95,WSW,254,6.0,10.0,91,0.00,,,0.00,Wunderground v.1.15,2013-06-24 06:06:00,
2013-06-24 01:12:00,69.3,66.6,29.95,WSW,249,6.0,11.0,91,0.00,,,0.00,Wunderground v.1.15,2013-06-24 06:12:00,
2013-06-24 01:17:00,69.4,66.3,29.95,WSW,252,7.0,11.0,90,0.00,,,0.00,Wunderground v.1.15,2013-06-24 06:17:00,
2013-06-24 01:24:00,69.4,66.3,29.95,SW,236,7.0,10.0,90,0.00,,,0.00,Wunderground v.1.15,2013-06-24 06:24:00,
2013-06-24 01:30:00,69.4,66.3,29.95,WSW,242,7.0,10.0,90,0.00,,,0.00,Wunderground v.1.15,2013-06-24 06:30:00,
2013-06-24 01:40:00,69.6,66.2,29.95,WSW,240,6.0,10.0,89,0.00,,,0.00,Wunderground v.1.15,2013-06-24 06:40:00,
2013-06-24 01:46:00,69.7,66.3,29.95,WSW,248,7.0,10.0,89,0.00,,,0.00,Wunderground v.1.15,2013-06-24 06:46:00,
2013-06-24 01:52:00,69.8,66.1,29.95,WSW,254,6.0,10.0,88,0.00,,,0.00,Wunderground v.1.15,2013-06-24 06:52:00,
2013-06-24 01:58:00,70.0,66.3,29.95,WSW,241,6.0,10.0,88,0.00,,,0.00,Wunderground v.1.15,2013-06-24 06:58:00,
2013-06-24 02:03:00,70.1,66.0,29.95,SW,234,7.0,10.0,87,0.00,,,0.00,Wunderground v.1.15,2013-06-24 07:03:00,
2013-06-24 02:09:00,70.0,66.0,29.95,West,259,6.0,10.0,87,0.00,,,0.00,Wunderground v.1.15,2013-06-24 07:09:00,
2013-06-24 02:16:00,70.0,66.0,29.94,West,260,6.0,10.0,87,0.00,,,0.00,Wunderground v.1.15,2013-06-24 07:16:00,
2013-06-24 02:22:00,70.1,66.0,29.94,West,260,6.0,10.0,87,0.00,,,0.00,Wunderground v.1.15,2013-06-24 07:22:00,
2013-06-24 02:28:00,70.2,66.1,29.94,West,261,7.0,11.0,87,0.00,,,0.00,Wunderground v.1.15,2013-06-24 07:28:00,
2013-06-24 02:34:00,70.4,66.3,29.94,WSW,248,7.0,10.0,87,0.00,,,0.00,Wunderground v.1.15,2013-06-24 07:34:00,
2013-06-24 02:39:00,70.3,66.2,29.94,WSW,257,7.0,10.0,87,0.00,,,0.00,Wunderground v.1.15,2013-06-24 07:39:00,
2013-06-24 02:45:00,70.3,66.2,29.94,West,263,7.0,10.0,87,0.00,,,0.00,Wunderground v.1.15,2013-06-24 07:45:00,
2013-06-24 02:50:00,70.4,66.3,29.94,WSW,248,7.0,10.0,87,0.00,,,0.00,Wunderground v.1.15,2013-06-24 07:50:00,
2013-06-24 02:56:00,70.6,66.5,29.94,West,278,7.0,10.0,87,0.00,,,0.00,Wunderground v.1.15,2013-06-24 07:56:00,
2013-06-24 03:02:00,70.7,66.6,29.94,SW,236,7.0,10.0,87,0.00,,,0.00,Wunderground v.1.15,2013-06-24 08:02:00,
2013-06-24 03:07:00,70.7,66.6,29.94,WSW,244,7.0,10.0,87,0.00,,,0.00,Wunderground v.1.15,2013-06-24 08:07:00,
2013-06-24 03:12:00,70.7,66.6,29.94,WSW,251,6.0,10.0,87,0.00,,,0.00,Wunderground v.1.15,2013-06-24 08:12:00,
2013-06-24 03:17:00,70.9,66.8,29.94,WSW,256,7.0,10.0,87,0.00,,,0.00,Wunderground v.1.15,2013-06-24 08:17:00,
2013-06-24 03:22:00,71.0,66.9,29.94,WSW,248,7.0,10.0,87,0.00,,,0.00,Wunderground v.1.15,2013-06-24 08:22:00,
2013-06-24 03:28:00,71.2,67.1,29.94,West,281,8.0,10.0,87,0.00,,,0.00,Wunderground v.1.15,2013-06-24 08:28:00,
2013-06-24 03:34:00,71.2,67.1,29.93,WSW,258,8.0,13.0,87,0.00,,,0.00,Wunderground v.1.15,2013-06-24 08:34:00,
2013-06-24 03:39:00,71.3,67.2,29.93,West,269,9.0,13.0,87,0.00,,,0.00,Wunderground v.1.15,2013-06-24 08:39:00,
2013-06-24 03:49:00,71.3,67.2,29.93,WSW,257,8.0,10.0,87,0.00,,,0.00,Wunderground v.1.15,2013-06-24 08:49:00,
2013-06-24 03:55:00,71.2,67.5,29.93,West,261,8.0,10.0,88,0.00,,,0.00,Wunderground v.1.15,2013-06-24 08:55:00,
2013-06-24 04:01:00,71.3,67.6,29.93,West,278,7.0,10.0,88,0.00,,,0.00,Wunderground v.1.15,2013-06-24 09:01:00,
2013-06-24 04:07:00,71.4,67.7,29.93,West,261,8.0,10.0,88,0.00,,,0.00,Wunderground v.1.15,2013-06-24 09:07:00,
2013-06-24 04:13:00,71.4,67.7,29.93,WSW,255,8.0,13.0,88,0.00,,,0.00,Wunderground v.1.15,2013-06-24 09:13:00,
2013-06-24 04:19:00,71.4,67.7,29.94,West,267,8.0,13.0,88,0.00,,,0.00,Wunderground v.1.15,2013-06-24 09:19:00,
2013-06-24 04:24:00,71.3,67.6,29.93,West,263,8.0,13.0,88,0.00,,,0.00,Wunderground v.1.15,2013-06-24 09:24:00,
2013-06-24 04:30:00,71.3,67.9,29.93,WSW,256,7.0,10.0,89,0.00,,,0.00,Wunderground v.1.15,2013-06-24 09:30:00,
2013-06-24 04:35:00,71.3,67.9,29.94,WSW,240,7.0,10.0,89,0.00,,,0.00,Wunderground v.1.15,2013-06-24 09:35:00,
2013-06-24 04:42:00,71.4,68.0,29.94,WSW,246,7.0,10.0,89,0.00,,,0.00,Wunderground v.1.15,2013-06-24 09:42:00,
2013-06-24 04:48:00,71.5,68.1,29.94,WSW,253,7.0,10.0,89,0.00,,,0.00,Wunderground v.1.15,2013-06-24 09:48:00,
2013-06-24 04:53:00,71.6,68.2,29.94,West,262,7.0,10.0,89,0.00,,,0.00,Wunderground v.1.15,2013-06-24 09:53:00,
2013-06-24 04:59:00,71.6,68.2,29.94,WSW,249,6.0,10.0,89,0.00,,,0.00,Wunderground v.1.15,2013-06-24 09:59:00,
2013-06-24 05:04:00,71.5,68.1,29.94,West,279,5.0,10.0,89,0.00,,,0.00,Wunderground v.1.15,2013-06-24 10:04:00,
2013-06-24 05:10:00,71.6,68.2,29.94,West,270,5.0,10.0,89,0.00,,,0.00,Wunderground v.1.15,2013-06-24 10:10:00,
2013-06-24 05:15:00,71.7,68.3,29.94,West,263,6.0,10.0,89,0.00,,,0.00,Wunderground v.1.15,2013-06-24 10:15:00,
2013-06-24 05:21:00,71.8,68.4,29.94,West,267,7.0,10.0,89,0.00,,,0.00,Wunderground v.1.15,2013-06-24 10:21:00,
2013-06-24 05:26:00,71.7,68.3,29.95,West,270,7.0,10.0,89,0.00,,,0.00,Wunderground v.1.15,2013-06-24 10:26:00,
2013-06-24 05:32:00,71.6,68.2,29.95,West,273,6.0,10.0,89,0.00,,,0.00,Wunderground v.1.15,2013-06-24 10:32:00,
2013-06-24 05:38:00,71.5,68.4,29.95,West,273,5.0,10.0,90,0.00,,,0.00,Wunderground v.1.15,2013-06-24 10:38:00,
2013-06-24 05:43:00,71.5,68.4,29.95,WNW,294,4.0,10.0,90,0.00,,,0.00,Wunderground v.1.15,2013-06-24 10:43:00,
2013-06-24 05:49:00,71.3,68.2,29.95,WNW,292,4.0,10.0,90,0.00,,,0.00,Wunderground v.1.15,2013-06-24 10:49:00,
2013-06-24 05:55:00,71.2,68.1,29.95,West,265,4.0,10.0,90,0.00,,,0.00,Wunderground v.1.15,2013-06-24 10:55:00,
2013-06-24 06:03:00,71.0,68.2,29.96,WSW,255,4.0,10.0,91,0.00,,,0.00,Wunderground v.1.15,2013-06-24 11:03:00,
2013-06-24 06:09:00,70.9,68.1,29.96,WSW,252,4.0,10.0,91,0.00,,,0.00,Wunderground v.1.15,2013-06-24 11:09:00,
2013-06-24 06:14:00,70.9,68.1,29.96,WSW,240,4.0,10.0,91,0.00,,,0.00,Wunderground v.1.15,2013-06-24 11:14:00,
2013-06-24 06:20:00,70.7,68.3,29.96,WSW,240,4.0,4.0,92,0.00,,,0.00,Wunderground v.1.15,2013-06-24 11:20:00,
2013-06-24 06:26:00,70.7,68.3,29.96,WSW,240,4.0,10.0,92,0.00,,,0.00,Wunderground v.1.15,2013-06-24 11:26:00,
2013-06-24 06:31:00,70.7,68.3,29.97,WSW,240,3.0,4.0,92,0.00,,,0.00,Wunderground v.1.15,2013-06-24 11:31:00,
2013-06-24 06:37:00,70.8,68.4,29.97,WSW,240,2.0,10.0,92,0.00,,,0.00,Wunderground v.1.15,2013-06-24 11:37:00,
2013-06-24 06:43:00,70.9,68.5,29.98,WSW,240,1.0,10.0,92,0.00,,,0.00,Wunderground v.1.15,2013-06-24 11:43:00,
2013-06-24 06:48:00,71.0,68.6,29.98,WSW,240,0.0,10.0,92,0.00,,,0.00,Wunderground v.1.15,2013-06-24 11:48:00,
2013-06-24 06:54:00,70.9,68.5,29.98,WSW,240,0.0,10.0,92,0.00,,,0.00,Wunderground v.1.15,2013-06-24 11:54:00,
2013-06-24 07:00:00,71.0,68.6,29.98,WSW,240,0.0,10.0,92,0.00,,,0.00,Wunderground v.1.15,2013-06-24 12:00:00,
2013-06-24 07:06:00,71.2,68.8,29.98,WSW,240,0.0,10.0,92,0.00,,,0.00,Wunderground v.1.15,2013-06-24 12:06:00,
2013-06-24 07:11:00,71.3,68.9,29.99,WSW,240,1.0,2.0,92,0.00,,,0.00,Wunderground v.1.15,2013-06-24 12:11:00,
2013-06-24 07:17:00,71.6,69.2,29.99,WSW,240,1.0,10.0,92,0.00,,,0.00,Wunderground v.1.15,2013-06-24 12:17:00,
2013-06-24 07:22:00,72.0,69.5,29.99,WSW,240,1.0,10.0,92,0.00,,,0.00,Wunderground v.1.15,2013-06-24 12:22:00,
2013-06-24 07:28:00,72.4,69.6,29.99,WSW,240,2.0,10.0,91,0.00,,,0.00,Wunderground v.1.15,2013-06-24 12:28:00,
2013-06-24 07:33:00,72.6,69.8,29.99,WSW,240,3.0,10.0,91,0.00,,,0.00,Wunderground v.1.15,2013-06-24 12:33:00,
2013-06-24 07:39:00,73.0,70.2,29.99,WSW,242,4.0,10.0,91,0.00,,,0.00,Wunderground v.1.15,2013-06-24 12:39:00,
2013-06-24 07:45:00,73.3,70.2,29.99,West,264,5.0,10.0,90,0.00,,,0.00,Wunderground v.1.15,2013-06-24 12:45:00,
2013-06-24 07:50:00,73.7,70.6,29.99,West,266,5.0,10.0,90,0.00,,,0.00,Wunderground v.1.15,2013-06-24 12:50:00,
2013-06-24 07:57:00,74.6,70.8,29.99,West,275,6.0,10.0,88,0.00,,,0.00,Wunderground v.1.15,2013-06-24 12:57:00,
2013-06-24 08:03:00,74.8,71.0,29.99,WSW,246,6.0,10.0,88,0.00,,,0.00,Wunderground v.1.15,2013-06-24 13:03:00,
2013-06-24 08:08:00,75.1,71.3,30.00,West,270,6.0,10.0,88,0.00,,,0.00,Wunderground v.1.15,2013-06-24 13:08:00,
2013-06-24 08:15:00,75.2,71.1,30.00,West,278,5.0,10.0,87,0.00,,,0.00,Wunderground v.1.15,2013-06-24 13:15:00,
2013-06-24 08:21:00,75.5,71.4,30.00,West,261,6.0,10.0,87,0.00,,,0.00,Wunderground v.1.15,2013-06-24 13:21:00,
2013-06-24 08:26:00,75.9,72.1,30.00,West,275,6.0,10.0,88,0.00,,,0.00,Wunderground v.1.15,2013-06-24 13:26:00,
2013-06-24 08:32:00,76.8,72.6,30.00,West,279,6.0,10.0,87,0.00,,,0.00,Wunderground v.1.15,2013-06-24 13:32:00,
2013-06-24 08:38:00,76.8,71.9,30.00,WNW,290,7.0,10.0,85,0.00,,,0.00,Wunderground v.1.15,2013-06-24 13:38:00,
2013-06-24 08:43:00,77.0,72.1,30.00,WNW,290,8.0,10.0,85,0.00,,,0.00,Wunderground v.1.15,2013-06-24 13:43:00,
2013-06-24 08:49:00,77.2,72.3,30.00,WSW,258,6.0,10.0,85,0.00,,,0.00,Wunderground v.1.15,2013-06-24 13:49:00,
2013-06-24 08:55:00,77.2,72.3,30.00,West,267,6.0,10.0,85,0.00,,,0.00,Wunderground v.1.15,2013-06-24 13:55:00,
2013-06-24 09:00:00,77.6,73.1,30.00,WSW,256,6.0,6.0,86,0.00,,,0.00,Wunderground v.1.15,2013-06-24 14:00:00,
2013-06-24 09:06:00,78.4,73.2,30.00,West,266,6.0,10.0,84,0.00,,,0.00,Wunderground v.1.15,2013-06-24 14:06:00,
2013-06-24 09:11:00,78.9,73.3,30.00,West,267,7.0,8.0,83,0.00,,,0.00,Wunderground v.1.15,2013-06-24 14:11:00,
2013-06-24 09:17:00,79.6,73.6,30.00,WNW,286,7.0,10.0,82,0.00,,,0.00,Wunderground v.1.15,2013-06-24 14:17:00,
2013-06-24 09:23:00,80.1,74.1,30.00,WNW,283,8.0,10.0,82,0.00,,,0.00,Wunderground v.1.15,2013-06-24 14:23:00,
2013-06-24 09:28:00,80.7,74.3,29.99,West,263,8.0,10.0,81,0.00,,,0.00,Wunderground v.1.15,2013-06-24 14:28:00,
2013-06-24 09:34:00,80.5,73.4,29.99,WNW,285,8.0,10.0,79,0.00,,,0.00,Wunderground v.1.15,2013-06-24 14:34:00,
2013-06-24 09:39:00,80.5,74.1,29.99,WNW,291,9.0,10.0,81,0.00,,,0.00,Wunderground v.1.15,2013-06-24 14:39:00,
2013-06-24 09:44:00,80.9,74.1,29.99,West,281,8.0,10.0,80,0.00,,,0.00,Wunderground v.1.15,2013-06-24 14:44:00,
2013-06-24 09:50:00,81.0,74.2,29.98,WNW,294,8.0,11.0,80,0.00,,,0.00,Wunderground v.1.15,2013-06-24 14:50:00,
2013-06-24 09:55:00,81.4,73.9,29.98,WNW,288,9.0,11.0,78,0.00,,,0.00,Wunderground v.1.15,2013-06-24 14:55:00,
2013-06-24 10:01:00,81.6,74.5,29.98,West,279,8.0,12.0,79,0.00,,,0.00,Wunderground v.1.15,2013-06-24 15:01:00,
2013-06-24 10:07:00,81.7,74.5,29.98,WNW,284,9.0,12.0,79,0.00,,,0.00,Wunderground v.1.15,2013-06-24 15:07:00,
2013-06-24 10:12:00,81.9,74.4,29.98,West,270,10.0,12.0,78,0.00,,,0.00,Wunderground v.1.15,2013-06-24 15:12:00,
2013-06-24 10:21:00,82.3,74.4,29.98,West,280,9.0,12.0,77,0.00,,,0.00,Wunderground v.1.15,2013-06-24 15:21:00,
2013-06-24 10:27:00,82.5,74.9,29.98,WNW,298,9.0,12.0,78,0.00,,,0.00,Wunderground v.1.15,2013-06-24 15:27:00,
2013-06-24 10:33:00,82.9,74.6,29.98,WNW,291,8.0,10.0,76,0.00,,,0.00,Wunderground v.1.15,2013-06-24 15:33:00,
2013-06-24 10:38:00,83.2,75.2,29.98,WNW,299,8.0,10.0,77,0.00,,,0.00,Wunderground v.1.15,2013-06-24 15:38:00,
2013-06-24 10:44:00,83.4,75.0,29.98,West,275,9.0,15.0,76,0.00,,,0.00,Wunderground v.1.15,2013-06-24 15:44:00,
2013-06-24 10:50:00,83.8,76.2,29.97,West,269,9.0,9.0,78,0.00,,,0.00,Wunderground v.1.15,2013-06-24 15:50:00,
2013-06-24 10:55:00,83.9,74.7,29.97,West,268,9.0,12.0,74,0.00,,,0.00,Wunderground v.1.15,2013-06-24 15:55:00,
2013-06-24 11:01:00,84.3,75.1,29.96,West,269,10.0,11.0,74,0.00,,,0.00,Wunderground v.1.15,2013-06-24 16:01:00,
2013-06-24 11:07:00,83.6,74.0,29.96,WNW,284,10.0,11.0,73,0.00,,,0.00,Wunderground v.1.15,2013-06-24 16:07:00,
2013-06-24 11:12:00,83.9,75.5,29.96,West,270,10.0,13.0,76,0.00,,,0.00,Wunderground v.1.15,2013-06-24 16:12:00,
2013-06-24 11:18:00,84.8,76.4,29.96,WSW,254,9.0,13.0,76,0.00,,,0.00,Wunderground v.1.15,2013-06-24 16:18:00,
2013-06-24 11:23:00,85.0,76.2,29.95,West,275,10.0,14.0,75,0.00,,,0.00,Wunderground v.1.15,2013-06-24 16:23:00,
2013-06-24 11:29:00,84.9,75.7,29.95,WNW,292,10.0,14.0,74,0.00,,,0.00,Wunderground v.1.15,2013-06-24 16:29:00,
2013-06-24 11:35:00,84.4,74.4,29.96,WNW,300,9.0,12.0,72,0.00,,,0.00,Wunderground v.1.15,2013-06-24 16:35:00,
2013-06-24 11:40:00,84.0,74.8,29.97,WNW,296,9.0,9.0,74,0.00,,,0.00,Wunderground v.1.15,2013-06-24 16:40:00,
2013-06-24 11:46:00,83.9,75.5,29.98,WNW,294,7.0,10.0,76,0.00,,,0.00,Wunderground v.1.15,2013-06-24 16:46:00,
2013-06-24 11:51:00,84.4,75.6,29.98,WNW,291,7.0,10.0,75,0.00,,,0.00,Wunderground v.1.15,2013-06-24 16:51:00,
2013-06-24 11:58:00,84.8,75.2,29.98,WNW,282,9.0,12.0,73,0.00,,,0.00,Wunderground v.1.15,2013-06-24 16:58:00,
2013-06-24 12:04:00,85.1,75.5,29.98,West,270,10.0,10.0,73,0.00,,,0.00,Wunderground v.1.15,2013-06-24 17:04:00,
2013-06-24 12:09:00,85.5,75.4,29.97,WSW,255,9.0,14.0,72,0.00,,,0.00,Wunderground v.1.15,2013-06-24 17:09:00,
2013-06-24 12:15:00,85.6,75.9,29.97,West,266,10.0,11.0,73,0.00,,,0.00,Wunderground v.1.15,2013-06-24 17:15:00,
2013-06-24 12:21:00,85.9,75.8,29.97,West,281,9.0,12.0,72,0.00,,,0.00,Wunderground v.1.15,2013-06-24 17:21:00,
2013-06-24 12:27:00,85.7,76.0,29.97,WNW,288,10.0,13.0,73,0.00,,,0.00,Wunderground v.1.15,2013-06-24 17:27:00,
2013-06-24 12:32:00,85.8,75.7,29.97,WNW,292,10.0,13.0,72,0.00,,,0.00,Wunderground v.1.15,2013-06-24 17:32:00,
2013-06-24 12:38:00,86.1,75.2,29.97,NW,314,10.0,13.0,70,0.00,,,0.00,Wunderground v.1.15,2013-06-24 17:38:00,
2013-06-24 12:44:00,86.2,75.7,29.97,WNW,290,10.0,10.0,71,0.00,,,0.00,Wunderground v.1.15,2013-06-24 17:44:00,
2013-06-24 12:50:00,86.5,76.4,29.96,West,281,9.0,9.0,72,0.00,,,0.00,Wunderground v.1.15,2013-06-24 17:50:00,
2013-06-24 12:55:00,86.8,75.8,29.96,WNW,288,9.0,13.0,70,0.00,,,0.00,Wunderground v.1.15,2013-06-24 17:55:00,
2013-06-24 13:01:00,86.3,75.8,29.96,WSW,256,11.0,11.0,71,0.00,,,0.00,Wunderground v.1.15,2013-06-24 18:01:00,
2013-06-24 13:06:00,86.6,76.1,29.96,WNW,290,11.0,11.0,71,0.00,,,0.00,Wunderground v.1.15,2013-06-24 18:06:00,
2013-06-24 13:12:00,86.8,75.4,29.95,West,261,9.0,16.0,69,0.00,,,0.00,Wunderground v.1.15,2013-06-24 18:12:00,
2013-06-24 13:17:00,87.0,76.5,29.95,WSW,254,9.0,16.0,71,0.00,,,0.00,Wunderground v.1.15,2013-06-24 18:17:00,
2013-06-24 13:23:00,86.7,75.7,29.95,West,266,9.0,12.0,70,0.00,,,0.00,Wunderground v.1.15,2013-06-24 18:23:00,
2013-06-24 13:29:00,86.8,75.8,29.94,WNW,290,10.0,12.0,70,0.00,,,0.00,Wunderground v.1.15,2013-06-24 18:29:00,
2013-06-24 13:35:00,87.0,76.0,29.94,WNW,291,10.0,10.0,70,0.00,,,0.00,Wunderground v.1.15,2013-06-24 18:35:00,
2013-06-24 13:40:00,87.2,76.6,29.94,WNW,288,9.0,10.0,71,0.00,,,0.00,Wunderground v.1.15,2013-06-24 18:40:00,
2013-06-24 13:46:00,87.2,75.8,29.94,West,279,10.0,15.0,69,0.00,,,0.00,Wunderground v.1.15,2013-06-24 18:46:00,
2013-06-24 13:51:00,86.8,75.4,29.95,West,264,11.0,14.0,69,0.00,,,0.00,Wunderground v.1.15,2013-06-24 18:51:00,
2013-06-24 13:57:00,87.0,76.5,29.95,West,261,11.0,14.0,71,0.00,,,0.00,Wunderground v.1.15,2013-06-24 18:57:00,
2013-06-24 14:03:00,87.1,76.5,29.96,WNW,292,9.0,11.0,71,0.00,,,0.00,Wunderground v.1.15,2013-06-24 19:03:00,
2013-06-24 14:08:00,87.5,76.9,29.96,WNW,298,7.0,11.0,71,0.00,,,0.00,Wunderground v.1.15,2013-06-24 19:08:00,
2013-06-24 14:14:00,87.7,75.4,29.96,WNW,286,8.0,14.0,67,0.00,,,0.00,Wunderground v.1.15,2013-06-24 19:14:00,
2013-06-24 14:19:00,87.3,75.4,29.96,WNW,286,10.0,14.0,68,0.00,,,0.00,Wunderground v.1.15,2013-06-24 19:19:00,
2013-06-24 14:25:00,86.9,75.9,29.95,West,277,10.0,11.0,70,0.00,,,0.00,Wunderground v.1.15,2013-06-24 19:25:00,
2013-06-24 14:32:00,86.6,76.1,29.95,WNW,294,8.0,10.0,71,0.00,,,0.00,Wunderground v.1.15,2013-06-24 19:32:00,
2013-06-24 14:38:00,87.6,77.0,29.94,NW,307,6.0,12.0,71,0.00,,,0.00,Wunderground v.1.15,2013-06-24 19:38:00,
2013-06-24 14:43:00,88.2,76.3,29.94,West,263,9.0,18.0,68,0.00,,,0.00,Wunderground v.1.15,2013-06-24 19:43:00,
2013-06-24 14:49:00,88.5,75.7,29.93,West,279,11.0,18.0,66,0.00,,,0.00,Wunderground v.1.15,2013-06-24 19:49:00,
2013-06-24 14:54:00,88.1,75.3,29.93,West,278,11.0,12.0,66,0.00,,,0.00,Wunderground v.1.15,2013-06-24 19:54:00,
2013-06-24 15:02:00,88.4,76.0,29.92,WNW,296,9.0,12.0,67,0.00,,,0.00,Wunderground v.1.15,2013-06-24 20:02:00,
2013-06-24 15:08:00,88.6,76.7,29.92,WNW,291,9.0,12.0,68,0.00,,,0.00,Wunderground v.1.15,2013-06-24 20:08:00,
2013-06-24 15:13:00,88.6,75.8,29.92,WNW,295,9.0,10.0,66,0.00,,,0.00,Wunderground v.1.15,2013-06-24 20:13:00,
2013-06-24 15:19:00,88.8,76.0,29.92,West,270,9.0,10.0,66,0.00,,,0.00,Wunderground v.1.15,2013-06-24 20:19:00,
2013-06-24 15:25:00,88.8,76.0,29.93,WNW,283,8.0,12.0,66,0.00,,,0.00,Wunderground v.1.15,2013-06-24 20:25:00,
2013-06-24 15:30:00,88.5,76.6,29.93,West,269,9.0,9.0,68,0.00,,,0.00,Wunderground v.1.15,2013-06-24 20:30:00,
2013-06-24 15:35:00,88.6,76.2,29.92,West,277,10.0,13.0,67,0.00,,,0.00,Wunderground v.1.15,2013-06-24 20:35:00,
2013-06-24 15:41:00,88.8,76.0,29.92,WSW,246,9.0,12.0,66,0.00,,,0.00,Wunderground v.1.15,2013-06-24 20:41:00,
2013-06-24 15:46:00,88.6,75.8,29.91,WNW,294,9.0,12.0,66,0.00,,,0.00,Wunderground v.1.15,2013-06-24 20:46:00,
2013-06-24 15:53:00,88.7,75.9,29.91,WNW,290,9.0,10.0,66,0.00,,,0.00,Wunderground v.1.15,2013-06-24 20:53:00,
2013-06-24 15:58:00,88.8,76.4,29.90,West,273,9.0,11.0,67,0.00,,,0.00,Wunderground v.1.15,2013-06-24 20:58:00,
2013-06-24 16:04:00,88.6,76.2,29.90,WNW,284,9.0,13.0,67,0.00,,,0.00,Wunderground v.1.15,2013-06-24 21:04:00,
2013-06-24 16:09:00,88.4,76.5,29.90,West,267,9.0,13.0,68,0.00,,,0.00,Wunderground v.1.15,2013-06-24 21:09:00,
2013-06-24 16:15:00,88.2,76.7,29.90,WSW,251,7.0,11.0,69,0.00,,,0.00,Wunderground v.1.15,2013-06-24 21:15:00,
2013-06-24 16:20:00,88.5,75.7,29.91,WNW,292,7.0,10.0,66,0.00,,,0.00,Wunderground v.1.15,2013-06-24 21:20:00,
2013-06-24 16:39:00,88.0,74.8,29.91,East,92,5.0,12.0,65,0.00,,,0.00,Wunderground v.1.15,2013-06-24 21:39:00,
2013-06-24 16:45:00,83.1,68.7,29.91,ENE,68,5.0,10.0,62,0.00,,,0.00,Wunderground v.1.15,2013-06-24 21:45:00,
2013-06-24 16:51:00,81.0,69.0,29.90,ENE,76,6.0,10.0,67,0.00,,,0.00,Wunderground v.1.15,2013-06-24 21:51:00,
2013-06-24 16:56:00,80.7,68.3,29.90,ENE,78,6.0,10.0,66,0.00,,,0.00,Wunderground v.1.15,2013-06-24 21:56:00,
2013-06-24 17:02:00,80.4,68.9,29.90,ENE,75,5.0,10.0,68,0.00,,,0.00,Wunderground v.1.15,2013-06-24 22:02:00,
2013-06-24 17:08:00,80.4,69.3,29.90,ESE,105,5.0,10.0,69,0.00,,,0.00,Wunderground v.1.15,2013-06-24 22:08:00,
2013-06-24 17:13:00,80.1,69.4,29.90,ESE,113,5.0,10.0,70,0.00,,,0.00,Wunderground v.1.15,2013-06-24 22:13:00,
2013-06-24 17:19:00,79.3,67.8,29.90,East,99,7.0,11.0,68,0.00,,,0.00,Wunderground v.1.15,2013-06-24 22:19:00,
2013-06-24 17:25:00,79.2,69.0,29.91,ESE,107,7.0,10.0,71,0.00,,,0.00,Wunderground v.1.15,2013-06-24 22:25:00,
2013-06-24 17:31:00,79.2,69.0,29.90,ESE,118,6.0,10.0,71,0.00,,,0.00,Wunderground v.1.15,2013-06-24 22:31:00,
2013-06-24 17:36:00,79.2,68.6,29.91,ESE,120,5.0,10.0,70,0.00,,,0.00,Wunderground v.1.15,2013-06-24 22:36:00,
2013-06-24 17:42:00,79.3,69.9,29.90,ESE,114,5.0,10.0,73,0.00,,,0.00,Wunderground v.1.15,2013-06-24 22:42:00,
2013-06-24 17:48:00,79.3,69.5,29.90,SE,128,5.0,10.0,72,0.00,,,0.00,Wunderground v.1.15,2013-06-24 22:48:00,
2013-06-24 17:53:00,79.2,69.0,29.90,ESE,109,4.0,10.0,71,0.00,,,0.00,Wunderground v.1.15,2013-06-24 22:53:00,
2013-06-24 18:01:00,79.1,68.5,29.90,ESE,114,4.0,5.0,70,0.00,,,0.00,Wunderground v.1.15,2013-06-24 23:01:00,
2013-06-24 18:07:00,79.1,69.7,29.90,SE,133,3.0,10.0,73,0.00,,,0.00,Wunderground v.1.15,2013-06-24 23:07:00,
2013-06-24 18:13:00,79.2,69.4,29.90,ESE,122,2.0,10.0,72,0.00,,,0.00,Wunderground v.1.15,2013-06-24 23:13:00,
2013-06-24 18:21:00,79.4,70.4,29.90,ESE,111,1.0,10.0,74,0.00,,,0.00,Wunderground v.1.15,2013-06-24 23:21:00,
2013-06-24 18:26:00,79.5,70.1,29.90,SSE,150,0.0,10.0,73,0.00,,,0.00,Wunderground v.1.15,2013-06-24 23:26:00,
2013-06-24 18:32:00,79.5,70.1,29.90,SE,142,1.0,10.0,73,0.00,,,0.00,Wunderground v.1.15,2013-06-24 23:32:00,
2013-06-24 18:37:00,79.4,70.0,29.90,SE,125,1.0,10.0,73,0.00,,,0.00,Wunderground v.1.15,2013-06-24 23:37:00,
2013-06-24 18:43:00,79.3,70.3,29.90,ESE,119,1.0,10.0,74,0.00,,,0.00,Wunderground v.1.15,2013-06-24 23:43:00,
2013-06-24 18:49:00,79.2,70.2,29.90,ESE,113,1.0,10.0,74,0.00,,,0.00,Wunderground v.1.15,2013-06-24 23:49:00,
2013-06-24 18:54:00,79.2,70.2,29.90,ESE,115,1.0,10.0,74,0.00,,,0.00,Wunderground v.1.15,2013-06-24 23:54:00,
2013-06-24 19:00:00,79.1,70.1,29.90,ESE,117,1.0,10.0,74,0.00,,,0.00,Wunderground v.1.15,2013-06-25 00:00:00,
2013-06-24 19:05:00,79.0,70.0,29.89,SSE,152,1.0,10.0,74,0.00,,,0.00,Wunderground v.1.15,2013-06-25 00:05:00,
2013-06-24 19:11:00,79.0,70.4,29.88,South,169,2.0,10.0,75,0.00,,,0.00,Wunderground v.1.15,2013-06-25 00:11:00,
2013-06-24 19:16:00,78.9,70.7,29.87,South,169,1.0,10.0,76,0.00,,,0.00,Wunderground v.1.15,2013-06-25 00:16:00,
2013-06-24 19:22:00,78.9,71.1,29.86,South,169,0.0,10.0,77,0.00,,,0.00,Wunderground v.1.15,2013-06-25 00:22:00,
2013-06-24 19:28:00,78.9,71.1,29.86,South,182,0.0,10.0,77,0.00,,,0.00,Wunderground v.1.15,2013-06-25 00:28:00,
2013-06-24 19:34:00,79.1,71.3,29.85,SW,228,1.0,10.0,77,0.00,,,0.00,Wunderground v.1.15,2013-06-25 00:34:00,
2013-06-24 19:39:00,79.2,71.4,29.85,SW,224,1.0,10.0,77,0.00,,,0.00,Wunderground v.1.15,2013-06-25 00:39:00,
2013-06-24 19:45:00,79.3,71.8,29.85,SW,219,2.0,10.0,78,0.00,,,0.00,Wunderground v.1.15,2013-06-25 00:45:00,
2013-06-24 19:50:00,79.4,71.9,29.86,SW,219,2.0,2.0,78,0.00,,,0.00,Wunderground v.1.15,2013-06-25 00:50:00,
2013-06-24 19:56:00,79.3,71.8,29.85,SW,219,0.0,10.0,78,0.00,,,0.00,Wunderground v.1.15,2013-06-25 00:56:00,
2013-06-24 20:02:00,79.4,71.9,29.85,SW,219,0.0,10.0,78,0.00,,,0.00,Wunderground v.1.15,2013-06-25 01:02:00,
2013-06-24 20:07:00,79.3,72.6,29.85,SW,219,0.0,10.0,80,0.00,,,0.00,Wunderground v.1.15,2013-06-25 01:07:00,
2013-06-24 20:12:00,79.2,72.9,29.84,SW,219,0.0,10.0,81,0.00,,,0.00,Wunderground v.1.15,2013-06-25 01:12:00,
2013-06-24 20:18:00,79.0,73.0,29.83,SSW,211,0.0,10.0,82,0.00,,,0.00,Wunderground v.1.15,2013-06-25 01:18:00,
2013-06-24 20:25:00,79.1,73.1,29.82,WSW,244,3.0,10.0,82,0.00,,,0.00,Wunderground v.1.15,2013-06-25 01:25:00,
2013-06-24 20:30:00,80.3,73.9,29.82,SW,234,6.0,10.0,81,0.00,,,0.00,Wunderground v.1.15,2013-06-25 01:30:00,
2013-06-24 20:36:00,81.2,74.1,29.82,WSW,243,9.0,10.0,79,0.00,,,0.00,Wunderground v.1.15,2013-06-25 01:36:00,
2013-06-24 20:42:00,81.8,73.9,29.82,WSW,238,9.0,10.0,77,0.00,,,0.00,Wunderground v.1.15,2013-06-25 01:42:00,
2013-06-24 20:48:00,82.1,73.8,29.82,WSW,243,9.0,14.0,76,0.00,,,0.00,Wunderground v.1.15,2013-06-25 01:48:00,
2013-06-24 20:54:00,82.5,73.8,29.81,SW,225,11.0,15.0,75,0.00,,,0.00,Wunderground v.1.15,2013-06-25 01:54:00,
2013-06-24 20:59:00,82.5,73.8,29.81,WSW,240,11.0,15.0,75,0.00,,,0.00,Wunderground v.1.15,2013-06-25 01:59:00,
2013-06-24 21:05:00,82.6,73.5,29.81,SW,233,10.0,11.0,74,0.00,,,0.00,Wunderground v.1.15,2013-06-25 02:05:00,
2013-06-24 21:10:00,82.7,73.6,29.81,West,264,10.0,10.0,74,0.00,,,0.00,Wunderground v.1.15,2013-06-25 02:10:00,
2013-06-24 21:16:00,82.6,73.5,29.81,West,265,10.0,12.0,74,0.00,,,0.00,Wunderground v.1.15,2013-06-25 02:16:00,
2013-06-24 21:24:00,82.7,73.2,29.81,West,265,11.0,11.0,73,0.00,,,0.00,Wunderground v.1.15,2013-06-25 02:24:00,
2013-06-24 21:32:00,82.9,72.9,29.81,West,267,12.0,13.0,72,0.00,,,0.00,Wunderground v.1.15,2013-06-25 02:32:00,
2013-06-24 21:37:00,82.7,72.7,29.81,WSW,237,11.0,22.0,72,0.00,,,0.00,Wunderground v.1.15,2013-06-25 02:37:00,
2013-06-24 21:43:00,82.5,72.6,29.82,WSW,252,10.0,12.0,72,0.00,,,0.00,Wunderground v.1.15,2013-06-25 02:43:00,
2013-06-24 21:49:00,82.6,72.2,29.82,WSW,252,10.0,12.0,71,0.00,,,0.00,Wunderground v.1.15,2013-06-25 02:49:00,
2013-06-24 21:55:00,82.7,72.3,29.82,WSW,255,10.0,13.0,71,0.00,,,0.00,Wunderground v.1.15,2013-06-25 02:55:00,
2013-06-24 22:02:00,82.6,71.8,29.83,West,271,9.0,14.0,70,0.00,,,0.00,Wunderground v.1.15,2013-06-25 03:02:00,
2013-06-24 22:07:00,82.6,71.8,29.83,WSW,245,10.0,14.0,70,0.00,,,0.00,Wunderground v.1.15,2013-06-25 03:07:00,
2013-06-24 22:14:00,82.7,71.9,29.84,WSW,255,10.0,16.0,70,0.00,,,0.00,Wunderground v.1.15,2013-06-25 03:14:00,
2013-06-24 22:20:00,82.4,71.6,29.84,WSW,253,9.0,12.0,70,0.00,,,0.00,Wunderground v.1.15,2013-06-25 03:20:00,
2013-06-24 22:28:00,82.1,71.8,29.84,WSW,252,9.0,12.0,71,0.00,,,0.00,Wunderground v.1.15,2013-06-25 03:28:00,
2013-06-24 22:33:00,81.8,71.9,29.84,West,277,8.0,10.0,72,0.00,,,0.00,Wunderground v.1.15,2013-06-25 03:33:00,
2013-06-24 22:42:00,81.7,71.8,29.85,West,267,8.0,10.0,72,0.00,,,0.00,Wunderground v.1.15,2013-06-25 03:42:00,
2013-06-24 22:48:00,81.4,71.5,29.85,West,260,7.0,12.0,72,0.00,,,0.00,Wunderground v.1.15,2013-06-25 03:48:00,
2013-06-24 22:55:00,81.3,71.8,29.86,WSW,252,7.0,10.0,73,0.00,,,0.00,Wunderground v.1.15,2013-06-25 03:55:00,
2013-06-24 23:01:00,81.2,71.7,29.86,WSW,255,7.0,10.0,73,0.00,,,0.00,Wunderground v.1.15,2013-06-25 04:01:00,
2013-06-24 23:03:00,81.1,71.6,29.86,West,272,7.0,10.0,73,0.00,,,0.00,Wunderground v.1.15,2013-06-25 04:03:00,
2013-06-24 23:04:00,81.2,71.7,29.86,West,271,7.0,10.0,73,0.00,,,0.00,Wunderground v.1.15,2013-06-25 04:04:00,
2013-06-24 23:05:00,81.2,71.7,29.86,West,273,7.0,10.0,73,0.00,,,0.00,Wunderground v.1.15,2013-06-25 04:05:00,
2013-06-24 23:09:00,81.0,71.5,29.86,West,273,6.0,10.0,73,0.00,,,0.00,Wunderground v.1.15,2013-06-25 04:09:00,
2013-06-24 23:14:00,80.9,71.4,29.86,West,259,6.0,10.0,73,0.00,,,0.00,Wunderground v.1.15,2013-06-25 04:14:00,
2013-06-24 23:20:00,80.8,71.7,29.87,West,275,6.0,10.0,74,0.00,,,0.00,Wunderground v.1.15,2013-06-25 04:20:00,
2013-06-24 23:25:00,81.0,71.9,29.87,West,262,7.0,10.0,74,0.00,,,0.00,Wunderground v.1.15,2013-06-25 04:25:00,
2013-06-24 23:31:00,80.9,71.8,29.87,West,259,8.0,10.0,74,0.00,,,0.00,Wunderground v.1.15,2013-06-25 04:31:00,
2013-06-24 23:36:00,80.8,72.1,29.87,WSW,254,7.0,10.0,75,0.00,,,0.00,Wunderground v.1.15,2013-06-25 04:36:00,
2013-06-24 23:42:00,80.7,72.0,29.88,West,269,7.0,10.0,75,0.00,,,0.00,Wunderground v.1.15,2013-06-25 04:42:00,
2013-06-24 23:47:00,80.6,71.9,29.88,West,275,7.0,10.0,75,0.00,,,0.00,Wunderground v.1.15,2013-06-25 04:47:00,
2013-06-24 23:53:00,80.5,72.2,29.88,West,269,7.0,10.0,76,0.00,,,0.00,Wunderground v.1.15,2013-06-25 04:53:00,
2013-06-24 23:58:00,80.3,72.0,29.88,West,267,7.0,10.0,76,0.00,,,0.00,Wunderground v.1.15,2013-06-25 04:58:00,